Location: Nairn
(57.5833°N, 3.8667°W)
Time: 03:02:53
(UTC+00:00)

Vanguard 1 Rocket - Pass Details

Date: 02 December 2020
Orbit: 655 x 4221 km, 34.3° (Epoch: 20 January)

Event Time Altitude Azimuth Distance (km) Brightness Sun altitude
Exits shadow 04:27:12 28° 223° (SW) 5,351 10.8 -31.5°
Maximum altitude 04:33:23 32° 198° (SSW) 4,676 10.7 -30.6°
Drops below altitude 10° 04:46:14 10° 143° (SE) 4,964 11.5 -28.9°
Sets 04:49:52 0° 133° (SE) 5,523 12.0 -28.5°
